sat.trackr.live / text

‹ back to catalog

ONEWEB-0588

NORAD 55153 · 2023-004P

PAYLOAD ACTIVE UNKNOWN

§ Identity

Operator
Country
UK
Launch date
2023-01-10
Launch site
AFETR
Launch vehicle
Mass (kg)
RCS (m²)

Purposes: comms

External: N2YO · Heavens-Above · Gunter

§ Orbital elements

Epoch: 2026-05-24T23:10:53.266656Z

Period
109.20 min
Inclination
87.9157°
Eccentricity
0.0001993
Mean motion
13.18687096 rev/d
Perigee alt
1,188.2 km
Apogee alt
1,191.2 km
Semi-major
7,567.9 km
B*
-5.7148e-5
RAAN
340.0929°
Arg perigee
104.0540°
Mean anomaly
256.0814°
Rev number
16,663

§ Raw data

ONEWEB-05881 55153U 23004P   26144.96589429 -.00000010  00000+0 -57148-4 0  99982 55153  87.9157 340.0929 0001993 104.0540 256.0814 13.18687096166638

JSON: /api/v1/satellites/55153 · /tle

For live sub-satellite position, see the globe view (requires WebGL).

§ Visibility from observer

Set your observer location to see the next 7 days of passes ≥ 10°. The values pass through the URL so the page stays shareable.

No JS? Fill the form by hand. The geolocation button needs JavaScript.